Погода в Стрелецком

Россия / Орловская область     53°00′42″N   35°58′25″E
темп.,
°C
ветер,
м/с
пор.,
м/с
влажн.,
%
обл.,
%
осадки,
мм/ч
давл.,
гПа
погр.,
м
28 ноября, вс
вс2800:00+5ю6139787 0.0 1002406
03:00+5ююз51196100 0.1 1003484
06:00+4юз48893 0.0 1004277
09:00+2юз38945 0.0 1006195
12:00+4зюз367734 0.0 1007316
15:00+4юз247678 0.0 1008173
18:00+2ююв3384100 0.0 100834
21:00+3юв3896100 0.0 1008167
29 ноября, пн
пн2900:00+3юв41196100 0.0 1008268
03:00+4юв41095100 0.0 1006226
06:00+4вюв4997100 0.0 1003216
09:00+4всв3899100 0.4 1000182
12:00+5вюв3899100 0.3 997296
15:00+6ю41099100 0.3 995371
18:00+6ююв41197100 0.0 993373
21:00+6вюв41096100 0.0 988310
30 ноября, вт
вт3000:00+7вюв51098100 3.9 981293
03:00+8ю3592100 5.3 975142
06:00+6зюз91496100 5.1 9761039
09:00+1зюз132297100 11.9 9821036
12:00+1зюз122092100 3.2 9861094
15:00+1зюз111883100 3.3 9881051
18:00+1юз101680100 0.0 9891309
21:00−1юз8148229 0.2 990874
1 декабря, ср
ср100:00−1зюз8138683 0.0 989932
03:00−2зюз8138991 0.2 991890
06:00−3з81392100 0.4 9911003
09:00−3з81293100 0.8 993939
12:00−3з81293100 1.2 996894
15:00−3з81288100 1.6 997822
18:00−4з7128798 0.0 999659
21:00−5з6108796 0.1 1001657
2 декабря, чт
чт200:00−6з4109378 0.0 1003440
03:00−7зюз3893100 0.0 1004278
06:00−6ююз3894100 0.0 1005263
09:00−4ю51288100 0.0 1004459
12:00−1ююз81696100 1.1 1002698
15:000ююз71597100 1.8 1001664
18:00+2юз7149399 0.2 1003522
21:00+1юз6149197 0.2 1004434